QPF
0.02 0.02 0.02 0.04 0.05 0.05 0.05 0.05 0.05 0.05 0.05 0.05 0.05 0.05 0.04 0.03 0.04 0.04 0.04 0.04 0.04 0.03 0.02 0.03 0.02 0.01 0.01 0.01 0.03 0.05 0.03 0.03 0.09 0.15 0.12 0.08 0.07 0.06
0.02 0.02 0.02 0.03 0.04 0.05 0.07 0.07 0.06 0.05 0.04 0.04 0.04 0.04 0.03 0.02 0.03 0.02 0.03 0.03 0.04 0.04 0.03 0.03 0.02 0.01 0.01 0.01 0.02 0.04 0.03 0.02 0.06 0.13 0.16 0.10 0.07 0.07
0.01 0.01 0.02 0.02 0.02 0.03 0.04 0.06 0.07 0.08 0.06 0.05 0.06 0.06 0.04 0.03 0.02 0.01 0.02 0.03 0.03 0.03 0.04 0.03 0.03 0.02 0.01 0.01 0.01 0.02 0.03 0.02 0.03 0.07 0.11 0.09 0.08 0.07
0.01 0.01 0.02 0.02 0.03 0.05 0.06 0.06 0.06 0.06 0.06 0.05 0.05 0.06 0.06 0.04 0.03 0.02 0.02 0.03 0.03 0.03 0.03 0.03 0.02 0.01 0.01 0.01 0.01 0.01 0.02 0.02 0.03 0.05 0.07 0.06 0.06 0.07
0.02 0.02 0.03 0.02 0.02 0.03 0.03 0.04 0.06 0.07 0.06 0.05 0.05 0.04 0.03 0.04 0.04 0.03 0.02 0.02 0.03 0.03 0.03 0.03 0.02 0.01 0.01 0.01 0.01 0.01 0.02 0.02 0.02 0.03 0.05 0.04 0.04 0.05
0.04 0.03 0.03 0.02 0.02 0.01 0.01 0.03 0.04 0.04 0.04 0.04 0.03 0.03 0.02 0.03 0.02 0.02 0.02 0.02 0.02 0.03 0.04 0.03 0.02 0.01 0.01 0.01 0.02 0.02 0.03 0.03 0.03 0.02 0.03 0.03 0.02 0.03
0.06 0.04 0.03 0.02 0.02 0.02 0.02 0.02 0.03 0.03 0.03 0.03 0.03 0.03 0.03 0.04 0.05 0.06 0.05 0.04 0.03 0.03 0.04 0.03 0.01 0.01 0.01 0.01 0.01 0.02 0.02 0.02 0.02 0.03 0.03 0.03 0.02 0.02
0.05 0.05 0.02 0.01 0.01 0.02 0.03 0.02 0.03 0.04 0.04 0.04 0.04 0.04 0.04 0.03 0.04 0.06 0.06 0.05 0.03 0.02 0.02 0.02 0.01 0.01 0.01 0.01 0.01 0.01 0.02 0.02 0.02 0.02 0.02 0.03 0.03 0.02
0.03 0.03 0.03 0.01 0.01 0.02 0.03 0.03 0.03 0.03 0.03 0.04 0.04 0.05 0.04 0.03 0.02 0.02 0.02 0.02 0.02 0.02 0.02 0.01 0.01 0.02 0.01 0.01 0.01 0.01 0.01 0.02 0.02 0.03 0.02 0.03 0.03 0.02
0.03 0.03 0.04 0.03 0.03 0.02 0.02 0.03 0.02 0.02 0.02 0.02 0.03 0.03 0.03 0.04 0.04 0.03 0.03 0.03 0.02 0.01 0.02 0.01 0.01 0.01 0.02 0.01 0.02 0.02 0.02 0.02 0.02 0.02 0.02 0.02 0.04 0.03
0.02 0.02 0.03 0.03 0.02 0.01 0.02 0.02 0.02 0.03 0.03 0.03 0.03 0.03 0.04 0.05 0.05 0.05 0.04 0.03 0.02 0.01 0.02 0.02 0.02 0.02 0.01 0.01 0.01 0.01 0.01 0.02 0.02 0.02 0.03 0.02 0.04 0.05
0.02 0.01 0.02 0.02 0.02 0.02 0.02 0.03 0.02 0.02 0.02 0.02 0.02 0.02 0.02 0.03 0.04 0.04 0.04 0.04 0.03 0.03 0.03 0.03 0.02 0.02 0.01 0.01 0.01 0.01 0.01 0.01 0.02 0.02 0.02 0.03 0.03 0.04
0.01 0.01 0.02 0.02 0.02 0.03 0.03 0.02 0.02 0.01 0.01 0.01 0.01 0.01 0.01 0.01 0.02 0.03 0.03 0.03 0.03 0.02 0.03 0.03 0.03 0.03 0.02 0.01 0.01 0.01 0.01 0.01 0.01 0.01 0.02 0.02 0.02 0.03
0.02 0.02 0.02 0.02 0.02 0.02 0.02 0.02 0.02 0.02 0.01 0.01 0.01 0.01 0.01 0.01 0.02 0.03 0.04 0.04 0.03 0.03 0.03 0.03 0.03 0.03 0.02 0.02 0.01 0.01 0.01 0.01 0.01 0.01 0.01 0.02 0.03 0.03
0.05 0.04 0.04 0.04 0.03 0.03 0.03 0.03 0.03 0.03 0.02 0.02 0.01 0.01 0.01 0.01 0.02 0.04 0.05 0.04 0.04 0.04 0.04 0.04 0.04 0.04 0.04 0.03 0.03 0.02 0.02 0.02 0.02 0.02 0.03 0.04 0.04 0.03
0.06 0.06 0.06 0.05 0.04 0.03 0.03 0.03 0.03 0.02 0.02 0.02 0.01 0.01 0.02 0.02 0.02 0.03 0.04 0.04 0.03 0.04 0.05 0.05 0.05 0.05 0.05 0.05 0.06 0.04 0.03 0.03 0.04 0.04 0.04 0.04 0.04 0.03
0.05 0.04 0.03 0.03 0.02 0.02 0.02 0.01 0.01 0.01 0.01 0.02 0.02 0.01 0.01 0.01 0.02 0.02 0.04 0.04 0.03 0.03 0.04 0.05 0.06 0.06 0.05 0.04 0.04 0.04 0.03 0.03 0.03 0.04 0.04 0.04 0.03 0.02
0.03 0.02 0.01 0.01 0.01 0.01 0.01 0.01 0.01 0.01 0.01 0.01 0.02 0.02 0.01 0.01 0.01 0.02 0.03 0.04 0.03 0.03 0.03 0.04 0.05 0.05 0.05 0.06 0.05 0.05 0.05 0.04 0.04 0.04 0.03 0.03 0.03 0.03
0.03 0.02 0.01 0.01 0.01 0.01 0.01 0.01 0.01 0.01 0.01 0.01 0.02 0.02 0.01 0.01 0.02 0.02 0.02 0.04 0.04 0.03 0.04 0.05 0.06 0.06 0.05 0.05 0.04 0.04 0.05 0.05 0.05 0.05 0.04 0.03 0.02 0.02
0.03 0.02 0.01 0.01 0.01 0.01 0.01 0.01 0.01 0.01 0.01 0.01 0.01 0.01 0.02 0.02 0.03 0.03 0.04 0.05 0.05 0.05 0.05 0.05 0.06 0.07 0.06 0.05 0.04 0.03 0.05 0.06 0.06 0.06 0.05 0.04 0.03 0.02
0.03 0.02 0.01 0.01 0.01 0.01 0.01 0.01 0.00 0.01 0.01 0.01 0.02 0.02 0.03 0.03 0.04 0.05 0.06 0.08 0.08 0.06 0.05 0.05 0.05 0.05 0.05 0.04 0.04 0.03 0.03 0.04 0.04 0.04 0.04 0.05 0.05 0.04
0.04 0.03 0.02 0.01 0.01 0.02 0.02 0.02 0.02 0.02 0.03 0.03 0.03 0.03 0.04 0.04 0.04 0.04 0.05 0.06 0.08 0.08 0.06 0.05 0.05 0.05 0.04 0.03 0.03 0.02 0.02 0.02 0.03 0.02 0.03 0.03 0.04 0.04
0.03 0.03 0.02 0.01 0.01 0.01 0.02 0.02 0.02 0.02 0.03 0.03 0.03 0.03 0.03 0.03 0.03 0.04 0.04 0.04 0.04 0.04 0.04 0.04 0.05 0.05 0.05 0.04 0.03 0.03 0.02 0.03 0.03 0.03 0.03 0.03 0.02 0.02
MSLP
1016.83 1017.10 1017.40 1017.69 1017.93 1018.08 1018.13 1018.08 1017.93 1017.70 1017.41 1017.08 1016.70 1016.28 1015.83 1015.34 1014.80 1014.24 1013.67 1013.11 1012.59 1012.12 1011.72 1011.40 1011.14 1010.93 1010.75 1010.57 1010.38 1010.16 1009.92 1009.67 1009.41 1009.16 1008.93 1008.73 1008.57 1008.44
1016.67 1016.91 1017.19 1017.47 1017.72 1017.90 1018.00 1018.01 1017.94 1017.78 1017.57 1017.29 1016.96 1016.59 1016.16 1015.68 1015.16 1014.61 1014.05 1013.50 1012.98 1012.52 1012.13 1011.81 1011.54 1011.32 1011.11 1010.91 1010.69 1010.43 1010.15 1009.85 1009.55 1009.24 1008.96 1008.71 1008.48 1008.29
1016.43 1016.65 1016.91 1017.17 1017.43 1017.64 1017.78 1017.86 1017.86 1017.78 1017.65 1017.45 1017.19 1016.86 1016.48 1016.04 1015.56 1015.03 1014.49 1013.96 1013.46 1013.01 1012.63 1012.30 1012.03 1011.80 1011.58 1011.35 1011.10 1010.82 1010.51 1010.17 1009.82 1009.47 1009.13 1008.82 1008.53 1008.28
1016.14 1016.34 1016.58 1016.84 1017.09 1017.32 1017.51 1017.64 1017.70 1017.71 1017.65 1017.53 1017.34 1017.09 1016.77 1016.38 1015.94 1015.46 1014.95 1014.45 1013.97 1013.54 1013.16 1012.84 1012.56 1012.32 1012.08 1011.84 1011.57 1011.26 1010.92 1010.55 1010.16 1009.77 1009.38 1009.02 1008.68 1008.37
1015.83 1016.01 1016.22 1016.47 1016.73 1016.97 1017.18 1017.35 1017.47 1017.54 1017.55 1017.50 1017.39 1017.21 1016.95 1016.63 1016.25 1015.83 1015.37 1014.91 1014.46 1014.05 1013.68 1013.35 1013.06 1012.80 1012.54 1012.28 1011.98 1011.66 1011.30 1010.90 1010.49 1010.06 1009.64 1009.24 1008.85 1008.50
1015.51 1015.66 1015.85 1016.08 1016.33 1016.57 1016.80 1017.00 1017.16 1017.27 1017.34 1017.35 1017.30 1017.19 1017.01 1016.76 1016.45 1016.08 1015.69 1015.27 1014.86 1014.46 1014.09 1013.76 1013.46 1013.17 1012.89 1012.60 1012.28 1011.94 1011.56 1011.15 1010.72 1010.28 1009.84 1009.41 1009.01 1008.62
1015.16 1015.28 1015.45 1015.66 1015.90 1016.13 1016.36 1016.57 1016.75 1016.89 1016.99 1017.05 1017.05 1017.00 1016.89 1016.72 1016.48 1016.19 1015.85 1015.49 1015.11 1014.73 1014.37 1014.03 1013.70 1013.39 1013.07 1012.75 1012.41 1012.05 1011.65 1011.24 1010.81 1010.37 1009.93 1009.50 1009.08 1008.70
1014.76 1014.86 1015.02 1015.21 1015.42 1015.65 1015.86 1016.07 1016.25 1016.40 1016.53 1016.62 1016.67 1016.67 1016.62 1016.51 1016.35 1016.13 1015.86 1015.55 1015.21 1014.85 1014.50 1014.14 1013.79 1013.44 1013.09 1012.73 1012.37 1011.99 1011.59 1011.17 1010.75 1010.32 1009.90 1009.48 1009.08 1008.70
1014.31 1014.39 1014.52 1014.70 1014.90 1015.11 1015.32 1015.51 1015.69 1015.85 1015.98 1016.09 1016.17 1016.22 1016.23 1016.19 1016.09 1015.94 1015.73 1015.48 1015.17 1014.84 1014.49 1014.12 1013.74 1013.36 1012.98 1012.59 1012.20 1011.81 1011.40 1011.00 1010.59 1010.18 1009.78 1009.39 1009.02 1008.66
1013.77 1013.85 1013.97 1014.14 1014.33 1014.54 1014.74 1014.93 1015.10 1015.26 1015.40 1015.52 1015.63 1015.71 1015.77 1015.78 1015.75 1015.66 1015.52 1015.31 1015.05 1014.74 1014.39 1014.02 1013.62 1013.22 1012.81 1012.40 1011.99 1011.58 1011.18 1010.78 1010.39 1010.01 1009.63 1009.28 1008.93 1008.60
1013.16 1013.24 1013.38 1013.55 1013.75 1013.95 1014.15 1014.34 1014.51 1014.67 1014.82 1014.95 1015.08 1015.20 1015.29 1015.36 1015.38 1015.35 1015.26 1015.10 1014.88 1014.60 1014.26 1013.89 1013.49 1013.07 1012.64 1012.22 1011.79 1011.38 1010.98 1010.59 1010.22 1009.86 1009.51 1009.17 1008.86 1008.55
1012.49 1012.60 1012.76 1012.95 1013.17 1013.38 1013.59 1013.78 1013.96 1014.12 1014.27 1014.42 1014.57 1014.71 1014.84 1014.94 1015.01 1015.03 1014.98 1014.87 1014.69 1014.44 1014.13 1013.77 1013.37 1012.95 1012.52 1012.09 1011.66 1011.25 1010.85 1010.47 1010.11 1009.76 1009.43 1009.11 1008.80 1008.50
1011.80 1011.95 1012.14 1012.36 1012.59 1012.82 1013.04 1013.24 1013.42 1013.59 1013.75 1013.91 1014.08 1014.24 1014.40 1014.53 1014.64 1014.70 1014.70 1014.63 1014.49 1014.27 1013.99 1013.66 1013.28 1012.87 1012.45 1012.02 1011.60 1011.19 1010.79 1010.41 1010.05 1009.70 1009.37 1009.05 1008.74 1008.44
1011.12 1011.31 1011.54 1011.78 1012.04 1012.28 1012.51 1012.71 1012.90 1013.07 1013.24 1013.41 1013.58 1013.77 1013.94 1014.11 1014.25 1014.34 1014.38 1014.35 1014.25 1014.07 1013.83 1013.53 1013.18 1012.79 1012.39 1011.97 1011.55 1011.14 1010.74 1010.36 1009.99 1009.63 1009.28 1008.95 1008.62 1008.31
1010.47 1010.70 1010.95 1011.22 1011.47 1011.72 1011.94 1012.15 1012.33 1012.51 1012.68 1012.86 1013.05 1013.24 1013.44 1013.63 1013.79 1013.92 1013.99 1014.00 1013.94 1013.80 1013.60 1013.34 1013.02 1012.66 1012.28 1011.88 1011.47 1011.06 1010.66 1010.26 1009.87 1009.49 1009.12 1008.76 1008.41 1008.07
1009.83 1010.09 1010.35 1010.62 1010.87 1011.10 1011.31 1011.51 1011.69 1011.86 1012.04 1012.23 1012.43 1012.65 1012.86 1013.07 1013.26 1013.42 1013.52 1013.57 1013.54 1013.44 1013.28 1013.05 1012.77 1012.45 1012.09 1011.70 1011.30 1010.89 1010.47 1010.05 1009.64 1009.24 1008.84 1008.45 1008.07 1007.70
1009.17 1009.44 1009.70 1009.94 1010.17 1010.38 1010.57 1010.75 1010.93 1011.10 1011.29 1011.50 1011.72 1011.96 1012.21 1012.45 1012.66 1012.85 1012.98 1013.05 1013.06 1013.00 1012.87 1012.68 1012.43 1012.13 1011.79 1011.42 1011.02 1010.59 1010.16 1009.72 1009.28 1008.84 1008.41 1007.98 1007.58 1007.18
1008.43 1008.69 1008.92 1009.14 1009.34 1009.53 1009.70 1009.87 1010.04 1010.23 1010.45 1010.69 1010.95 1011.23 1011.51 1011.79 1012.04 1012.25 1012.41 1012.52 1012.55 1012.51 1012.41 1012.24 1012.02 1011.73 1011.40 1011.03 1010.63 1010.19 1009.74 1009.27 1008.80 1008.32 1007.85 1007.40 1006.96 1006.54
1007.54 1007.78 1007.99 1008.18 1008.36 1008.52 1008.69 1008.87 1009.07 1009.29 1009.56 1009.85 1010.17 1010.50 1010.84 1011.16 1011.45 1011.70 1011.89 1012.02 1012.07 1012.05 1011.97 1011.81 1011.59 1011.31 1010.98 1010.60 1010.18 1009.73 1009.24 1008.74 1008.24 1007.73 1007.22 1006.74 1006.27 1005.82
1006.46 1006.69 1006.89 1007.06 1007.23 1007.40 1007.58 1007.80 1008.05 1008.34 1008.68 1009.05 1009.45 1009.86 1010.26 1010.64 1010.98 1011.26 1011.48 1011.62 1011.69 1011.67 1011.59 1011.43 1011.20 1010.91 1010.57 1010.17 1009.73 1009.25 1008.73 1008.20 1007.65 1007.11 1006.57 1006.05 1005.54 1005.07
1005.21 1005.43 1005.63 1005.82 1006.01 1006.21 1006.45 1006.73 1007.06 1007.45 1007.88 1008.35 1008.85 1009.35 1009.83 1010.27 1010.65 1010.97 1011.21 1011.36 1011.42 1011.40 1011.30 1011.13 1010.89 1010.58 1010.21 1009.78 1009.31 1008.79 1008.24 1007.67 1007.08 1006.50 1005.92 1005.35 1004.82 1004.30
1003.84 1004.08 1004.31 1004.54 1004.78 1005.05 1005.38 1005.75 1006.19 1006.69 1007.24 1007.82 1008.42 1009.01 1009.56 1010.06 1010.49 1010.83 1011.07 1011.22 1011.28 1011.24 1011.12 1010.92 1010.65 1010.31 1009.90 1009.45 1008.93 1008.38 1007.79 1007.17 1006.54 1005.91 1005.29 1004.68 1004.09 1003.54
1002.44 1002.73 1003.02 1003.32 1003.65 1004.02 1004.46 1004.95 1005.51 1006.13 1006.79 1007.48 1008.17 1008.83 1009.45 1009.99 1010.44 1010.79 1011.03 1011.17 1011.20 1011.14 1010.98 1010.75 1010.44 1010.07 1009.63 1009.14 1008.59 1007.99 1007.36 1006.70 1006.02 1005.34 1004.67 1004.01 1003.37 1002.76
Thickness
5740 5738 5737 5735 5733 5731 5728 5724 5719 5714 5713 5715 5715 5716 5714 5712 5710 5707 5706 5704 5703 5701 5700 5698 5696 5695 5693 5692 5691 5689 5688 5686 5686 5685 5684 5683 5682 5680
5739 5736 5734 5733 5731 5729 5726 5724 5721 5716 5713 5714 5714 5713 5711 5709 5707 5705 5703 5701 5700 5698 5696 5695 5693 5691 5690 5688 5687 5685 5684 5683 5682 5681 5680 5679 5677 5676
5737 5735 5732 5731 5729 5727 5725 5723 5720 5717 5712 5713 5712 5710 5708 5706 5704 5702 5700 5698 5696 5695 5693 5691 5689 5687 5686 5685 5683 5681 5680 5679 5678 5677 5676 5674 5673 5671
5734 5732 5730 5729 5727 5725 5723 5721 5718 5716 5712 5709 5708 5706 5704 5702 5700 5698 5696 5695 5693 5691 5690 5688 5686 5684 5682 5681 5679 5678 5676 5675 5674 5672 5672 5670 5669 5667
5732 5730 5728 5726 5724 5722 5720 5718 5716 5714 5711 5707 5705 5703 5700 5698 5696 5694 5692 5690 5689 5688 5685 5684 5682 5680 5679 5677 5676 5674 5673 5671 5669 5668 5667 5666 5664 5663
5730 5728 5726 5724 5722 5720 5717 5715 5713 5709 5706 5703 5701 5698 5696 5694 5691 5689 5687 5686 5684 5683 5681 5680 5678 5676 5675 5673 5672 5670 5669 5667 5665 5664 5662 5661 5659 5658
5725 5724 5723 5721 5719 5717 5715 5711 5708 5705 5702 5699 5696 5694 5692 5689 5688 5686 5683 5681 5679 5678 5676 5675 5674 5672 5670 5669 5667 5666 5664 5663 5661 5659 5658 5656 5655 5653
5720 5719 5718 5717 5715 5713 5711 5708 5705 5702 5699 5696 5693 5690 5688 5686 5683 5681 5678 5675 5674 5674 5671 5670 5669 5667 5666 5665 5664 5662 5660 5658 5657 5655 5653 5651 5650 5648
5715 5714 5713 5712 5709 5707 5705 5703 5700 5698 5696 5693 5690 5688 5685 5684 5680 5676 5673 5672 5670 5670 5666 5665 5664 5662 5662 5661 5660 5658 5656 5654 5652 5650 5648 5646 5644 5643
5711 5709 5706 5704 5703 5700 5698 5696 5694 5693 5690 5689 5687 5685 5683 5680 5677 5674 5671 5667 5665 5663 5661 5660 5659 5658 5658 5656 5655 5653 5651 5649 5647 5645 5643 5642 5640 5638
5705 5703 5701 5699 5696 5694 5691 5688 5687 5686 5685 5683 5681 5679 5677 5675 5672 5668 5665 5662 5660 5658 5656 5654 5654 5652 5652 5651 5650 5648 5646 5644 5642 5640 5639 5637 5635 5633
5698 5696 5695 5692 5690 5687 5684 5682 5680 5679 5677 5676 5674 5672 5670 5668 5666 5663 5661 5657 5654 5653 5652 5649 5648 5646 5647 5647 5645 5643 5641 5639 5637 5635 5634 5632 5629 5627
5690 5688 5687 5685 5683 5680 5678 5675 5674 5672 5670 5668 5666 5665 5663 5661 5659 5657 5655 5652 5649 5648 5647 5643 5641 5639 5638 5639 5638 5636 5635 5633 5632 5630 5629 5627 5625 5622
5684 5682 5680 5678 5676 5674 5671 5669 5666 5664 5663 5660 5658 5657 5655 5654 5653 5651 5648 5646 5645 5643 5641 5638 5636 5633 5631 5631 5631 5631 5629 5627 5626 5625 5624 5622 5620 5618
5677 5675 5673 5670 5668 5666 5664 5661 5659 5657 5655 5653 5651 5649 5648 5647 5645 5643 5641 5639 5637 5636 5634 5631 5629 5627 5625 5624 5624 5623 5622 5622 5620 5619 5619 5617 5616 5614
5669 5667 5665 5662 5660 5658 5656 5653 5651 5649 5647 5645 5644 5642 5640 5638 5636 5635 5633 5631 5629 5628 5626 5624 5622 5620 5619 5618 5616 5615 5615 5615 5615 5614 5613 5612 5611 5610
5662 5659 5657 5655 5653 5650 5648 5645 5642 5640 5638 5636 5635 5633 5632 5630 5628 5626 5623 5621 5620 5619 5619 5616 5614 5613 5611 5610 5610 5610 5610 5609 5609 5608 5606 5607 5607 5606
5654 5652 5649 5647 5645 5643 5640 5638 5635 5633 5631 5628 5626 5624 5622 5621 5619 5617 5614 5613 5611 5611 5610 5608 5606 5605 5604 5604 5603 5603 5603 5603 5603 5601 5600 5601 5603 5603
5647 5645 5642 5640 5638 5636 5634 5631 5628 5626 5623 5621 5618 5616 5614 5613 5611 5609 5607 5605 5603 5602 5601 5599 5597 5596 5597 5598 5600 5596 5596 5597 5596 5595 5595 5595 5597 5598
5641 5638 5636 5634 5631 5629 5627 5624 5622 5619 5616 5613 5611 5609 5606 5604 5602 5601 5599 5597 5596 5595 5593 5592 5590 5589 5588 5590 5591 5591 5589 5589 5589 5589 5590 5590 5591 5591
5635 5633 5630 5628 5626 5623 5620 5617 5614 5611 5608 5606 5603 5601 5599 5597 5595 5593 5592 5589 5587 5587 5587 5587 5585 5582 5581 5581 5582 5584 5584 5582 5583 5584 5584 5584 5585 5586
5629 5626 5624 5621 5619 5616 5614 5611 5608 5605 5601 5598 5596 5594 5592 5589 5588 5586 5584 5583 5582 5581 5581 5581 5579 5576 5575 5575 5576 5578 5578 5577 5577 5577 5577 5578 5579 5582
5623 5621 5618 5616 5613 5610 5607 5604 5601 5598 5594 5592 5589 5587 5585 5583 5581 5580 5578 5576 5575 5575 5574 5573 5572 5571 5570 5570 5570 5571 5572 5571 5571 5571 5572 5573 5574 5575